Location: Jesenik
(50.2330°N, 17.2000°E)
Time: 04:45:47
(UTC+02:00)

ISS - Pass Details

Date: 31 March 2019
Orbit: 408 x 410 km, 51.6° (Epoch: 21 April)

Event Time Altitude Azimuth Distance (km) Brightness Sun altitude
Rises 21:00:40 0° 283° (WNW) 2,338 1.6 -15.9°
Reaches altitude 10° 21:02:45 10° 284° (WNW) 1,475 0.3 -16.2°
Maximum altitude 21:06:04 84° 15° (NNE) 416 -3.9 -16.7°
Enters shadow 21:06:55 47° 97° (E) 550 -3.6 -16.8°
